Time,TemperatureF,DewpointF,PressureIn,WindDirection,WindDirectionDegrees,WindSpeedMPH,WindSpeedGustMPH,Humidity,HourlyPrecipIn,Conditions,Clouds,dailyrainin,SolarRadiationWatts/m^2,SoftwareType,DateUTC
2013-06-05 00:00:00,64.7,60.7,30.00,SSE,168,0.0,0.0,87,0.00,,,0.06,0,Wunderground v.1.15,2013-06-05 05:00:00,
2013-06-05 00:05:00,65.0,61.4,30.00,SSE,168,0.0,0.0,88,0.00,,,0.06,0,Wunderground v.1.15,2013-06-05 05:05:00,
2013-06-05 00:15:00,65.9,60.9,30.01,SSE,168,0.0,0.0,84,0.00,,,0.06,0,Wunderground v.1.15,2013-06-05 05:15:00,
2013-06-05 00:20:00,65.2,60.6,30.01,SSE,168,0.0,0.0,85,0.00,,,0.06,0,Wunderground v.1.15,2013-06-05 05:20:00,
2013-06-05 00:30:00,64.4,60.4,30.00,SSE,168,0.0,0.0,87,0.00,,,0.06,0,Wunderground v.1.15,2013-06-05 05:30:00,
2013-06-05 00:40:00,63.9,60.0,29.99,SSE,163,0.0,0.0,87,0.00,,,0.06,0,Wunderground v.1.15,2013-06-05 05:40:00,
2013-06-05 00:45:00,63.9,60.3,29.99,SSE,163,0.0,0.0,88,0.00,,,0.06,0,Wunderground v.1.15,2013-06-05 05:45:00,
2013-06-05 00:50:00,63.9,60.3,29.99,SSE,157,0.0,6.0,88,0.00,,,0.06,0,Wunderground v.1.15,2013-06-05 05:50:00,
2013-06-05 01:00:00,63.8,59.9,29.99,SE,132,2.0,2.0,87,0.00,,,0.06,0,Wunderground v.1.15,2013-06-05 06:00:00,
2013-06-05 01:05:00,63.6,59.7,29.99,SE,130,1.0,2.0,87,0.00,,,0.06,0,Wunderground v.1.15,2013-06-05 06:05:00,
2013-06-05 01:15:00,63.5,59.6,29.98,ESE,114,2.0,2.0,87,0.00,,,0.06,0,Wunderground v.1.15,2013-06-05 06:15:00,
2013-06-05 01:20:00,63.4,59.5,29.98,ESE,111,1.0,1.0,87,0.00,,,0.06,0,Wunderground v.1.15,2013-06-05 06:20:00,
2013-06-05 01:30:00,63.5,59.6,29.98,ESE,107,1.0,8.0,87,0.00,,,0.06,0,Wunderground v.1.15,2013-06-05 06:30:00,
2013-06-05 01:35:00,63.4,59.5,29.98,ESE,107,2.0,8.0,87,0.00,,,0.06,0,Wunderground v.1.15,2013-06-05 06:35:00,
2013-06-05 01:40:00,63.4,59.5,29.98,ESE,105,2.0,6.0,87,0.00,,,0.06,0,Wunderground v.1.15,2013-06-05 06:40:00,
2013-06-05 01:45:00,63.5,59.6,29.98,ESE,109,1.0,6.0,87,0.00,,,0.06,0,Wunderground v.1.15,2013-06-05 06:45:00,
2013-06-05 01:55:00,63.5,59.6,29.98,ESE,109,1.0,2.0,87,0.00,,,0.06,0,Wunderground v.1.15,2013-06-05 06:55:00,
2013-06-05 02:00:00,63.5,59.6,29.98,ESE,109,0.0,1.0,87,0.00,,,0.06,0,Wunderground v.1.15,2013-06-05 07:00:00,
2013-06-05 02:10:00,63.3,59.0,29.98,ESE,108,0.0,3.0,86,0.00,,,0.06,0,Wunderground v.1.15,2013-06-05 07:10:00,
2013-06-05 02:15:00,63.2,59.3,29.99,ESE,108,0.0,3.0,87,0.00,,,0.06,0,Wunderground v.1.15,2013-06-05 07:15:00,
2013-06-05 02:25:00,63.2,59.3,29.99,ESE,108,0.0,0.0,87,0.00,,,0.06,0,Wunderground v.1.15,2013-06-05 07:25:00,
2013-06-05 02:30:00,63.1,59.2,29.99,ESE,108,0.0,0.0,87,0.00,,,0.00,0,Wunderground v.1.15,2013-06-05 07:30:00,
2013-06-05 02:35:00,62.8,58.9,29.99,ESE,108,0.0,0.0,87,0.00,,,0.00,0,Wunderground v.1.15,2013-06-05 07:35:00,
2013-06-05 02:40:00,62.6,58.7,29.99,ESE,108,0.0,0.0,87,0.00,,,0.00,0,Wunderground v.1.15,2013-06-05 07:40:00,
2013-06-05 02:50:00,62.3,58.7,29.99,ESE,109,0.0,0.0,88,0.00,,,0.00,0,Wunderground v.1.15,2013-06-05 07:50:00,
2013-06-05 03:05:00,62.2,58.9,29.99,ESE,109,0.0,0.0,89,0.00,,,0.00,0,Wunderground v.1.15,2013-06-05 08:05:00,
2013-06-05 03:10:00,62.0,58.4,29.99,ESE,109,0.0,0.0,88,0.00,,,0.00,0,Wunderground v.1.15,2013-06-05 08:10:00,
2013-06-05 03:20:00,61.6,58.3,29.99,ESE,108,0.0,0.0,89,0.00,,,0.00,0,Wunderground v.1.15,2013-06-05 08:20:00,
2013-06-05 03:25:00,61.5,58.2,29.99,ESE,109,0.0,0.0,89,0.00,,,0.00,0,Wunderground v.1.15,2013-06-05 08:25:00,
2013-06-05 03:30:00,61.4,58.4,29.99,ESE,109,0.0,0.0,90,0.00,,,0.00,0,Wunderground v.1.15,2013-06-05 08:30:00,
2013-06-05 03:35:00,61.4,58.4,29.98,ESE,108,0.0,0.0,90,0.00,,,0.00,0,Wunderground v.1.15,2013-06-05 08:35:00,
2013-06-05 03:45:00,61.2,58.2,29.98,ESE,108,0.0,0.0,90,0.00,,,0.00,0,Wunderground v.1.15,2013-06-05 08:45:00,
2013-06-05 03:50:00,61.1,58.1,29.98,ESE,109,0.0,0.0,90,0.00,,,0.00,0,Wunderground v.1.15,2013-06-05 08:50:00,
2013-06-05 04:00:00,60.9,58.3,29.98,ESE,109,0.0,4.0,91,0.00,,,0.00,0,Wunderground v.1.15,2013-06-05 09:00:00,
2013-06-05 04:05:00,60.8,58.2,29.98,ESE,109,1.0,4.0,91,0.00,,,0.00,0,Wunderground v.1.15,2013-06-05 09:05:00,
2013-06-05 04:10:00,60.8,58.2,29.98,ESE,109,1.0,1.0,91,0.00,,,0.00,0,Wunderground v.1.15,2013-06-05 09:10:00,
2013-06-05 04:15:00,60.8,58.2,29.98,ESE,109,0.0,1.0,91,0.00,,,0.00,0,Wunderground v.1.15,2013-06-05 09:15:00,
2013-06-05 04:25:00,60.6,58.0,29.98,ESE,109,0.0,0.0,91,0.00,,,0.00,0,Wunderground v.1.15,2013-06-05 09:25:00,
2013-06-05 04:30:00,60.5,57.9,29.98,ESE,109,0.0,0.0,91,0.00,,,0.00,0,Wunderground v.1.15,2013-06-05 09:30:00,
2013-06-05 04:35:00,60.5,58.2,29.98,ESE,109,0.0,1.0,92,0.00,,,0.00,0,Wunderground v.1.15,2013-06-05 09:35:00,
2013-06-05 04:45:00,60.4,58.1,29.98,ESE,108,0.0,5.0,92,0.00,,,0.00,0,Wunderground v.1.15,2013-06-05 09:45:00,
2013-06-05 04:50:00,60.4,58.1,29.98,ESE,108,0.0,0.0,92,0.00,,,0.00,0,Wunderground v.1.15,2013-06-05 09:50:00,
2013-06-05 04:55:00,60.4,58.1,29.98,ESE,108,0.0,0.0,92,0.00,,,0.00,0,Wunderground v.1.15,2013-06-05 09:55:00,
2013-06-05 05:05:00,60.3,58.0,29.98,ESE,108,0.0,4.0,92,0.00,,,0.00,0,Wunderground v.1.15,2013-06-05 10:05:00,
2013-06-05 05:10:00,60.3,58.0,29.98,ESE,108,2.0,5.0,92,0.00,,,0.00,0,Wunderground v.1.15,2013-06-05 10:10:00,
2013-06-05 05:20:00,60.2,57.9,29.98,ESE,107,1.0,1.0,92,0.00,,,0.00,0,Wunderground v.1.15,2013-06-05 10:20:00,
2013-06-05 05:25:00,60.2,57.9,29.98,ESE,107,0.0,1.0,92,0.00,,,0.00,0,Wunderground v.1.15,2013-06-05 10:25:00,
2013-06-05 05:35:00,60.2,57.9,29.97,ESE,107,0.0,4.0,92,0.00,,,0.00,0,Wunderground v.1.15,2013-06-05 10:35:00,
2013-06-05 05:40:00,60.2,57.9,29.97,ESE,107,0.0,0.0,92,0.00,,,0.00,0,Wunderground v.1.15,2013-06-05 10:40:00,
2013-06-05 05:50:00,60.2,57.9,29.96,ESE,107,0.0,0.0,92,0.00,,,0.00,0,Wunderground v.1.15,2013-06-05 10:50:00,
2013-06-05 05:55:00,60.1,57.8,29.96,ESE,107,0.0,0.0,92,0.00,,,0.00,5,Wunderground v.1.15,2013-06-05 10:55:00,
2013-06-05 06:00:00,60.1,57.8,29.95,ESE,107,0.0,4.0,92,0.00,,,0.00,11,Wunderground v.1.15,2013-06-05 11:00:00,
2013-06-05 06:10:00,60.1,57.8,29.95,ESE,107,0.0,0.0,92,0.00,,,0.00,21,Wunderground v.1.15,2013-06-05 11:10:00,
2013-06-05 06:15:00,60.1,58.1,29.95,ESE,109,1.0,1.0,93,0.00,,,0.00,26,Wunderground v.1.15,2013-06-05 11:15:00,
2013-06-05 06:20:00,60.1,58.1,29.95,ESE,113,2.0,2.0,93,0.00,,,0.00,26,Wunderground v.1.15,2013-06-05 11:20:00,
2013-06-05 06:30:00,60.3,58.3,29.94,ESE,115,2.0,6.0,93,0.00,,,0.00,35,Wunderground v.1.15,2013-06-05 11:30:00,
2013-06-05 06:35:00,60.4,58.4,29.95,ESE,120,3.0,7.0,93,0.00,,,0.00,44,Wunderground v.1.15,2013-06-05 11:35:00,
2013-06-05 06:40:00,60.4,58.4,29.95,ESE,117,4.0,4.0,93,0.00,,,0.00,49,Wunderground v.1.15,2013-06-05 11:40:00,
2013-06-05 06:50:00,60.5,58.2,29.95,ESE,118,1.0,1.0,92,0.00,,,0.00,56,Wunderground v.1.15,2013-06-05 11:50:00,
2013-06-05 06:55:00,60.5,58.2,29.95,ESE,115,1.0,6.0,92,0.00,,,0.00,60,Wunderground v.1.15,2013-06-05 11:55:00,
2013-06-05 07:05:00,60.6,58.3,29.94,ESE,115,3.0,7.0,92,0.00,,,0.00,62,Wunderground v.1.15,2013-06-05 12:05:00,
2013-06-05 07:10:00,60.7,58.4,29.94,ESE,116,3.0,3.0,92,0.00,,,0.00,60,Wunderground v.1.15,2013-06-05 12:10:00,
2013-06-05 07:20:00,60.8,58.5,29.94,ESE,115,3.0,7.0,92,0.00,,,0.00,67,Wunderground v.1.15,2013-06-05 12:20:00,
2013-06-05 07:25:00,60.8,58.5,29.94,ESE,115,3.0,7.0,92,0.00,,,0.00,72,Wunderground v.1.15,2013-06-05 12:25:00,
2013-06-05 07:30:00,60.9,58.6,29.94,ESE,114,3.0,3.0,92,0.00,,,0.00,74,Wunderground v.1.15,2013-06-05 12:30:00,
2013-06-05 07:40:00,61.0,58.7,29.95,ESE,113,3.0,3.0,92,0.00,,,0.00,79,Wunderground v.1.15,2013-06-05 12:40:00,
2013-06-05 07:45:00,61.1,58.8,29.95,ESE,119,2.0,5.0,92,0.00,,,0.00,83,Wunderground v.1.15,2013-06-05 12:45:00,
2013-06-05 07:55:00,61.2,58.9,29.95,ESE,120,1.0,5.0,92,0.00,,,0.00,91,Wunderground v.1.15,2013-06-05 12:55:00,
2013-06-05 08:00:00,61.3,59.0,29.95,ESE,120,0.0,0.0,92,0.00,,,0.00,95,Wunderground v.1.15,2013-06-05 13:00:00,
2013-06-05 08:10:00,61.4,59.1,29.95,SE,127,1.0,6.0,92,0.00,,,0.00,105,Wunderground v.1.15,2013-06-05 13:10:00,
2013-06-05 08:15:00,61.4,59.1,29.95,SE,127,2.0,6.0,92,0.00,,,0.00,111,Wunderground v.1.15,2013-06-05 13:15:00,
2013-06-05 08:25:00,61.7,59.4,29.96,SE,129,1.0,6.0,92,0.00,,,0.00,120,Wunderground v.1.15,2013-06-05 13:25:00,
2013-06-05 08:35:00,62.5,60.1,29.96,SE,129,1.0,5.0,92,0.00,,,0.00,121,Wunderground v.1.15,2013-06-05 13:35:00,
2013-06-05 08:40:00,62.6,59.9,29.97,SE,128,1.0,1.0,91,0.00,,,0.00,125,Wunderground v.1.15,2013-06-05 13:40:00,
2013-06-05 08:45:00,62.7,60.0,29.96,SE,128,0.0,1.0,91,0.00,,,0.00,128,Wunderground v.1.15,2013-06-05 13:45:00,
2013-06-05 08:55:00,63.2,60.5,29.97,SE,128,0.0,2.0,91,0.00,,,0.00,120,Wunderground v.1.15,2013-06-05 13:55:00,
2013-06-05 09:00:00,63.3,60.3,29.97,SE,130,1.0,1.0,90,0.00,,,0.00,113,Wunderground v.1.15,2013-06-05 14:00:00,
2013-06-05 09:05:00,63.4,60.4,29.97,SE,129,1.0,5.0,90,0.00,,,0.00,98,Wunderground v.1.15,2013-06-05 14:05:00,
2013-06-05 09:15:00,63.8,60.5,29.98,SE,128,0.0,1.0,89,0.00,,,0.00,93,Wunderground v.1.15,2013-06-05 14:15:00,
2013-06-05 09:20:00,64.0,60.7,29.98,SE,128,0.0,0.0,89,0.00,,,0.00,90,Wunderground v.1.15,2013-06-05 14:20:00,
2013-06-05 09:30:00,64.1,60.8,29.98,SE,129,1.0,1.0,89,0.00,,,0.00,97,Wunderground v.1.15,2013-06-05 14:30:00,
2013-06-05 09:35:00,64.3,61.0,29.98,SE,130,1.0,3.0,89,0.00,,,0.00,104,Wunderground v.1.15,2013-06-05 14:35:00,
2013-06-05 09:45:00,64.5,61.2,29.98,SE,130,0.0,1.0,89,0.00,,,0.00,121,Wunderground v.1.15,2013-06-05 14:45:00,
2013-06-05 09:55:00,64.6,61.3,29.98,SE,130,0.0,5.0,89,0.00,,,0.00,95,Wunderground v.1.15,2013-06-05 14:55:00,
2013-06-05 10:05:00,64.8,61.2,29.98,SE,130,0.0,0.0,88,0.00,,,0.00,63,Wunderground v.1.15,2013-06-05 15:05:00,
2013-06-05 10:15:00,64.9,60.9,29.98,SE,130,1.0,3.0,87,0.00,,,0.00,56,Wunderground v.1.15,2013-06-05 15:15:00,
2013-06-05 10:25:00,65.0,61.0,29.98,SE,129,1.0,6.0,87,0.00,,,0.00,62,Wunderground v.1.15,2013-06-05 15:25:00,
2013-06-05 10:35:00,64.8,61.2,29.98,SE,129,1.0,5.0,88,0.00,,,0.00,72,Wunderground v.1.15,2013-06-05 15:35:00,
2013-06-05 10:40:00,64.8,61.2,29.98,SE,131,1.0,5.0,88,0.00,,,0.00,79,Wunderground v.1.15,2013-06-05 15:40:00,
2013-06-05 10:45:00,64.7,61.1,29.99,SE,144,2.0,7.0,88,0.00,,,0.01,83,Wunderground v.1.15,2013-06-05 15:45:00,
2013-06-05 10:50:00,64.7,61.4,29.99,SSE,155,2.0,2.0,89,0.00,,,0.01,95,Wunderground v.1.15,2013-06-05 15:50:00,
2013-06-05 11:00:00,64.7,61.4,29.98,SSE,167,3.0,9.0,89,0.00,,,0.01,116,Wunderground v.1.15,2013-06-05 16:00:00,
2013-06-05 11:05:00,64.9,61.6,29.98,SSE,166,2.0,9.0,89,0.00,,,0.01,123,Wunderground v.1.15,2013-06-05 16:05:00,
2013-06-05 11:10:00,64.9,61.6,29.97,SSE,165,2.0,6.0,89,0.00,,,0.01,127,Wunderground v.1.15,2013-06-05 16:10:00,
2013-06-05 11:20:00,64.7,61.7,29.97,SSE,168,3.0,3.0,90,0.00,,,0.01,116,Wunderground v.1.15,2013-06-05 16:20:00,
2013-06-05 11:30:00,64.9,61.6,29.97,South,171,1.0,9.0,89,0.00,,,0.01,95,Wunderground v.1.15,2013-06-05 16:30:00,
2013-06-05 11:35:00,64.9,61.6,29.97,SSE,162,2.0,9.0,89,0.00,,,0.01,90,Wunderground v.1.15,2013-06-05 16:35:00,
2013-06-05 11:40:00,65.2,61.9,29.97,SSE,167,1.0,1.0,89,0.00,,,0.01,93,Wunderground v.1.15,2013-06-05 16:40:00,
2013-06-05 11:50:00,65.2,61.9,29.97,SSE,167,1.0,1.0,89,0.00,,,0.01,102,Wunderground v.1.15,2013-06-05 16:50:00,
2013-06-05 11:55:00,65.0,62.0,29.97,SSE,167,0.0,1.0,90,0.00,,,0.01,102,Wunderground v.1.15,2013-06-05 16:55:00,
2013-06-05 12:00:00,65.4,62.4,29.97,SSE,167,0.0,0.0,90,0.00,,,0.01,88,Wunderground v.1.15,2013-06-05 17:00:00,
2013-06-05 12:10:00,65.4,62.1,29.98,SSE,167,0.0,0.0,89,0.00,,,0.01,56,Wunderground v.1.15,2013-06-05 17:10:00,
2013-06-05 12:15:00,65.2,61.9,29.98,SSE,167,0.0,0.0,89,0.00,,,0.01,69,Wunderground v.1.15,2013-06-05 17:15:00,
2013-06-05 12:20:00,65.1,62.1,29.97,SSE,167,0.0,0.0,90,0.00,,,0.01,74,Wunderground v.1.15,2013-06-05 17:20:00,
2013-06-05 12:25:00,65.0,62.0,29.97,SSE,168,0.0,0.0,90,0.00,,,0.01,65,Wunderground v.1.15,2013-06-05 17:25:00,
2013-06-05 12:30:00,65.0,62.3,29.97,SSE,168,0.0,0.0,91,0.00,,,0.01,62,Wunderground v.1.15,2013-06-05 17:30:00,
2013-06-05 12:40:00,65.9,62.9,29.96,SSE,168,0.0,0.0,90,0.00,,,0.01,47,Wunderground v.1.15,2013-06-05 17:40:00,
2013-06-05 12:45:00,65.8,62.8,29.96,SSE,168,0.0,0.0,90,0.00,,,0.01,44,Wunderground v.1.15,2013-06-05 17:45:00,
2013-06-05 12:50:00,65.9,62.6,29.96,SSE,168,0.0,6.0,89,0.00,,,0.01,51,Wunderground v.1.15,2013-06-05 17:50:00,
2013-06-05 13:00:00,65.9,62.6,29.94,SSE,168,0.0,0.0,89,0.00,,,0.01,121,Wunderground v.1.15,2013-06-05 18:00:00,
2013-06-05 13:05:00,66.2,63.2,29.94,SSE,168,0.0,0.0,90,0.00,,,0.01,153,Wunderground v.1.15,2013-06-05 18:05:00,
2013-06-05 13:15:00,66.0,62.7,29.93,SE,128,1.0,4.0,89,0.00,,,0.01,162,Wunderground v.1.15,2013-06-05 18:15:00,
2013-06-05 13:20:00,66.0,62.7,29.92,North,355,2.0,9.0,89,0.00,,,0.01,174,Wunderground v.1.15,2013-06-05 18:20:00,
2013-06-05 13:25:00,65.7,62.4,29.92,NNW,346,3.0,10.0,89,0.00,,,0.01,176,Wunderground v.1.15,2013-06-05 18:25:00,
2013-06-05 13:35:00,65.7,62.7,29.92,North,355,4.0,6.0,90,0.00,,,0.01,141,Wunderground v.1.15,2013-06-05 18:35:00,
2013-06-05 13:45:00,65.5,62.8,29.92,North,5,5.0,10.0,91,0.00,,,0.02,153,Wunderground v.1.15,2013-06-05 18:45:00,
2013-06-05 13:50:00,65.5,62.8,29.92,North,5,5.0,5.0,91,0.00,,,0.02,142,Wunderground v.1.15,2013-06-05 18:50:00,
2013-06-05 14:00:00,65.8,63.1,29.92,North,9,3.0,8.0,91,0.00,,,0.03,146,Wunderground v.1.15,2013-06-05 19:00:00,
2013-06-05 14:05:00,65.8,63.1,29.93,North,9,3.0,8.0,91,0.00,,,0.03,130,Wunderground v.1.15,2013-06-05 19:05:00,
2013-06-05 14:15:00,67.0,64.6,29.93,North,9,0.0,2.0,92,0.08,,,0.04,105,Wunderground v.1.15,2013-06-05 19:15:00,
2013-06-05 14:20:00,67.4,64.4,29.93,North,9,0.0,0.0,90,0.05,,,0.05,91,Wunderground v.1.15,2013-06-05 19:20:00,
2013-06-05 14:30:00,67.1,64.1,29.93,North,9,0.0,0.0,90,0.07,,,0.06,58,Wunderground v.1.15,2013-06-05 19:30:00,
2013-06-05 14:35:00,66.8,63.8,29.93,North,9,0.0,0.0,90,0.10,,,0.07,32,Wunderground v.1.15,2013-06-05 19:35:00,
2013-06-05 14:45:00,66.2,63.5,29.93,North,9,0.0,0.0,91,0.08,,,0.08,44,Wunderground v.1.15,2013-06-05 19:45:00,
2013-06-05 14:50:00,66.0,63.6,29.93,North,9,0.0,0.0,92,0.08,,,0.09,58,Wunderground v.1.15,2013-06-05 19:50:00,
2013-06-05 15:00:00,66.7,64.0,29.93,North,9,0.0,0.0,91,0.06,,,0.09,153,Wunderground v.1.15,2013-06-05 20:00:00,
2013-06-05 15:05:00,67.0,64.9,29.93,North,9,0.0,0.0,93,0.04,,,0.10,163,Wunderground v.1.15,2013-06-05 20:05:00,
2013-06-05 15:15:00,66.4,64.0,29.94,North,9,0.0,4.0,92,0.10,,,0.11,120,Wunderground v.1.15,2013-06-05 20:15:00,
2013-06-05 15:20:00,66.1,63.7,29.93,North,9,1.0,1.0,92,0.06,,,0.11,197,Wunderground v.1.15,2013-06-05 20:20:00,
2013-06-05 15:25:00,67.0,64.9,29.93,North,9,1.0,1.0,93,0.04,,,0.11,193,Wunderground v.1.15,2013-06-05 20:25:00,
2013-06-05 15:35:00,67.8,65.4,29.93,North,9,0.0,4.0,92,0.04,,,0.12,193,Wunderground v.1.15,2013-06-05 20:35:00,
2013-06-05 15:40:00,68.8,65.7,29.93,North,9,0.0,0.0,90,0.04,,,0.12,213,Wunderground v.1.15,2013-06-05 20:40:00,
2013-06-05 15:55:00,67.6,64.2,29.94,North,5,2.0,2.0,89,0.00,,,0.13,142,Wunderground v.1.15,2013-06-05 20:55:00,
2013-06-05 16:00:00,67.2,64.2,29.93,North,360,3.0,3.0,90,0.00,,,0.13,130,Wunderground v.1.15,2013-06-05 21:00:00,
2013-06-05 16:10:00,67.2,64.8,29.93,North,360,0.0,5.0,92,0.00,,,0.13,116,Wunderground v.1.15,2013-06-05 21:10:00,
2013-06-05 16:20:00,67.2,64.5,29.94,North,360,1.0,1.0,91,0.87,,,0.17,37,Wunderground v.1.15,2013-06-05 21:20:00,
2013-06-05 16:25:00,67.0,64.6,29.94,North,360,1.0,4.0,92,0.34,,,0.21,46,Wunderground v.1.15,2013-06-05 21:25:00,
2013-06-05 16:35:00,67.0,64.6,29.94,North,360,0.0,0.0,92,0.18,,,0.27,46,Wunderground v.1.15,2013-06-05 21:35:00,
2013-06-05 16:40:00,66.5,64.1,29.94,North,360,0.0,0.0,92,0.17,,,0.28,63,Wunderground v.1.15,2013-06-05 21:40:00,
2013-06-05 16:45:00,66.3,64.2,29.94,North,360,0.0,0.0,93,0.12,,,0.29,58,Wunderground v.1.15,2013-06-05 21:45:00,
2013-06-05 16:55:00,66.8,64.7,29.93,North,360,0.0,0.0,93,0.10,,,0.31,100,Wunderground v.1.15,2013-06-05 21:55:00,
2013-06-05 17:00:00,67.0,64.9,29.93,North,360,0.0,0.0,93,0.07,,,0.32,111,Wunderground v.1.15,2013-06-05 22:00:00,
2013-06-05 17:05:00,67.1,65.0,29.93,North,360,0.0,0.0,93,0.15,,,0.33,127,Wunderground v.1.15,2013-06-05 22:05:00,
2013-06-05 17:15:00,67.2,65.1,29.93,North,360,0.0,3.0,93,0.06,,,0.34,171,Wunderground v.1.15,2013-06-05 22:15:00,
2013-06-05 17:20:00,66.9,64.5,29.93,North,5,0.0,0.0,92,0.06,,,0.34,192,Wunderground v.1.15,2013-06-05 22:20:00,
2013-06-05 17:25:00,66.8,64.7,29.92,North,360,1.0,2.0,93,0.05,,,0.34,260,Wunderground v.1.15,2013-06-05 22:25:00,
2013-06-05 17:35:00,66.8,65.0,29.92,NNE,13,1.0,4.0,94,0.00,,,0.34,408,Wunderground v.1.15,2013-06-05 22:35:00,
2013-06-05 17:45:00,68.0,66.5,29.91,NNE,20,2.0,4.0,95,0.00,,,0.35,717,Wunderground v.1.15,2013-06-05 22:45:00,
2013-06-05 17:50:00,68.4,66.6,29.91,NE,42,1.0,9.0,94,0.00,,,0.35,443,Wunderground v.1.15,2013-06-05 22:50:00,
2013-06-05 17:55:00,68.1,65.7,29.91,NE,44,3.0,11.0,92,0.00,,,0.35,311,Wunderground v.1.15,2013-06-05 22:55:00,
2013-06-05 18:05:00,68.6,66.2,29.91,NE,49,4.0,7.0,92,0.00,,,0.35,288,Wunderground v.1.15,2013-06-05 23:05:00,
2013-06-05 18:10:00,68.8,66.1,29.91,NE,53,2.0,2.0,91,0.00,,,0.35,276,Wunderground v.1.15,2013-06-05 23:10:00,
2013-06-05 18:15:00,69.0,65.9,29.91,NE,35,2.0,4.0,90,0.00,,,0.35,360,Wunderground v.1.15,2013-06-05 23:15:00,
2013-06-05 18:25:00,70.3,66.6,29.91,NNE,28,1.0,6.0,88,0.00,,,0.35,313,Wunderground v.1.15,2013-06-05 23:25:00,
2013-06-05 18:30:00,69.9,65.9,29.91,NNE,31,1.0,1.0,87,0.00,,,0.35,141,Wunderground v.1.15,2013-06-05 23:30:00,
2013-06-05 18:35:00,69.4,65.4,29.91,NNE,30,1.0,3.0,87,0.00,,,0.35,118,Wunderground v.1.15,2013-06-05 23:35:00,
2013-06-05 18:40:00,68.8,65.1,29.91,NE,40,3.0,10.0,88,0.00,,,0.35,114,Wunderground v.1.15,2013-06-05 23:40:00,
2013-06-05 18:50:00,68.7,65.3,29.91,NE,50,3.0,3.0,89,0.00,,,0.35,132,Wunderground v.1.15,2013-06-05 23:50:00,
2013-06-05 18:55:00,68.8,65.4,29.91,NE,50,2.0,4.0,89,0.00,,,0.35,167,Wunderground v.1.15,2013-06-05 23:55:00,
2013-06-05 19:05:00,69.7,66.3,29.92,NE,50,1.0,1.0,89,0.00,,,0.35,98,Wunderground v.1.15,2013-06-06 00:05:00,
2013-06-05 19:15:00,70.7,67.0,29.92,NE,50,0.0,0.0,88,0.00,,,0.35,165,Wunderground v.1.15,2013-06-06 00:15:00,
2013-06-05 19:20:00,71.1,66.7,29.92,NE,50,0.0,0.0,86,0.00,,,0.35,165,Wunderground v.1.15,2013-06-06 00:20:00,
2013-06-05 19:25:00,71.1,66.7,29.92,NE,50,0.0,0.0,86,0.00,,,0.35,72,Wunderground v.1.15,2013-06-06 00:25:00,
2013-06-05 19:35:00,71.0,66.3,29.92,NE,50,0.0,1.0,85,0.00,,,0.35,28,Wunderground v.1.15,2013-06-06 00:35:00,
2013-06-05 19:50:00,70.8,66.4,29.93,NE,50,0.0,0.0,86,0.00,,,0.35,37,Wunderground v.1.15,2013-06-06 00:50:00,
2013-06-05 19:55:00,71.0,66.6,29.93,NE,50,0.0,0.0,86,0.00,,,0.35,25,Wunderground v.1.15,2013-06-06 00:55:00,
2013-06-05 20:00:00,71.5,66.8,29.93,NE,50,0.0,0.0,85,0.00,,,0.35,18,Wunderground v.1.15,2013-06-06 01:00:00,
2013-06-05 20:10:00,71.4,66.3,29.94,NE,50,0.0,0.0,84,0.00,,,0.35,12,Wunderground v.1.15,2013-06-06 01:10:00,
2013-06-05 20:15:00,71.4,66.3,29.94,NE,50,0.0,0.0,84,0.00,,,0.35,11,Wunderground v.1.15,2013-06-06 01:15:00,
2013-06-05 20:20:00,71.4,66.3,29.94,NE,50,0.0,0.0,84,0.00,,,0.35,7,Wunderground v.1.15,2013-06-06 01:20:00,
2013-06-05 20:25:00,71.3,65.9,29.93,NE,50,0.0,0.0,83,0.00,,,0.35,5,Wunderground v.1.15,2013-06-06 01:25:00,
2013-06-05 20:35:00,71.0,65.9,29.93,NE,50,0.0,0.0,84,0.00,,,0.35,0,Wunderground v.1.15,2013-06-06 01:35:00,
2013-06-05 20:45:00,70.8,65.7,29.94,NE,50,0.0,0.0,84,0.00,,,0.35,0,Wunderground v.1.15,2013-06-06 01:45:00,
2013-06-05 20:50:00,70.3,65.2,29.94,NE,50,0.0,0.0,84,0.00,,,0.35,0,Wunderground v.1.15,2013-06-06 01:50:00,
2013-06-05 21:00:00,70.3,66.2,29.94,NE,50,0.0,0.0,87,0.00,,,0.35,0,Wunderground v.1.15,2013-06-06 02:00:00,
2013-06-05 21:05:00,70.6,66.2,29.94,NE,50,0.0,0.0,86,0.00,,,0.35,0,Wunderground v.1.15,2013-06-06 02:05:00,
2013-06-05 21:10:00,70.7,66.0,29.94,NE,50,0.0,0.0,85,0.00,,,0.35,0,Wunderground v.1.15,2013-06-06 02:10:00,
2013-06-05 21:20:00,70.4,65.7,29.94,NE,50,0.0,0.0,85,0.00,,,0.35,0,Wunderground v.1.15,2013-06-06 02:20:00,
2013-06-05 21:25:00,69.7,65.7,29.94,NE,50,0.0,0.0,87,0.00,,,0.35,0,Wunderground v.1.15,2013-06-06 02:25:00,
2013-06-05 21:30:00,69.2,65.2,29.94,NE,50,0.0,0.0,87,0.00,,,0.35,0,Wunderground v.1.15,2013-06-06 02:30:00,
2013-06-05 21:40:00,68.3,64.9,29.94,NE,50,0.0,0.0,89,0.00,,,0.35,0,Wunderground v.1.15,2013-06-06 02:40:00,
2013-06-05 21:45:00,68.3,65.3,29.95,NE,50,0.0,0.0,90,0.00,,,0.35,0,Wunderground v.1.15,2013-06-06 02:45:00,
2013-06-05 21:50:00,68.3,65.3,29.95,NE,50,0.0,0.0,90,0.00,,,0.35,0,Wunderground v.1.15,2013-06-06 02:50:00,
2013-06-05 22:00:00,68.2,65.2,29.96,NE,50,0.0,3.0,90,0.00,,,0.35,0,Wunderground v.1.15,2013-06-06 03:00:00,
2013-06-05 22:05:00,67.9,65.2,29.96,NE,50,0.0,3.0,91,0.00,,,0.35,0,Wunderground v.1.15,2013-06-06 03:05:00,
2013-06-05 22:15:00,67.6,64.9,29.96,NE,44,1.0,5.0,91,0.00,,,0.35,0,Wunderground v.1.15,2013-06-06 03:15:00,
2013-06-05 22:20:00,67.4,64.7,29.96,NE,37,1.0,5.0,91,0.00,,,0.35,0,Wunderground v.1.15,2013-06-06 03:20:00,
2013-06-05 22:30:00,67.2,64.8,29.97,NNW,335,3.0,3.0,92,0.00,,,0.35,0,Wunderground v.1.15,2013-06-06 03:30:00,
2013-06-05 22:35:00,67.1,64.7,29.97,NNW,335,4.0,4.0,92,0.00,,,0.35,0,Wunderground v.1.15,2013-06-06 03:35:00,
2013-06-05 22:40:00,67.0,64.3,29.97,NW,323,3.0,7.0,91,0.00,,,0.35,0,Wunderground v.1.15,2013-06-06 03:40:00,
2013-06-05 22:50:00,66.9,64.5,29.97,NW,323,1.0,1.0,92,0.00,,,0.35,0,Wunderground v.1.15,2013-06-06 03:50:00,
2013-06-05 22:55:00,67.0,64.3,29.97,NW,323,0.0,2.0,91,0.00,,,0.35,0,Wunderground v.1.15,2013-06-06 03:55:00,
2013-06-05 23:05:00,67.2,64.5,29.97,NW,323,1.0,5.0,91,0.00,,,0.35,0,Wunderground v.1.15,2013-06-06 04:05:00,
2013-06-05 23:10:00,67.2,64.5,29.97,NW,323,1.0,1.0,91,0.00,,,0.35,0,Wunderground v.1.15,2013-06-06 04:10:00,
2013-06-05 23:15:00,67.1,64.4,29.97,NW,323,0.0,6.0,91,0.00,,,0.35,0,Wunderground v.1.15,2013-06-06 04:15:00,
2013-06-05 23:20:00,67.0,64.3,29.97,NW,323,0.0,0.0,91,0.00,,,0.35,0,Wunderground v.1.15,2013-06-06 04:20:00,
2013-06-05 23:25:00,67.2,64.5,29.97,NW,323,0.0,4.0,91,0.00,,,0.35,0,Wunderground v.1.15,2013-06-06 04:25:00,
2013-06-05 23:30:00,67.2,64.2,29.97,NW,323,0.0,5.0,90,0.00,,,0.35,0,Wunderground v.1.15,2013-06-06 04:30:00,
2013-06-05 23:35:00,67.0,64.0,29.97,NW,323,1.0,6.0,90,0.00,,,0.35,0,Wunderground v.1.15,2013-06-06 04:35:00,
2013-06-05 23:40:00,66.9,63.9,29.97,NW,323,2.0,2.0,90,0.00,,,0.35,0,Wunderground v.1.15,2013-06-06 04:40:00,
2013-06-05 23:50:00,67.2,64.2,29.97,NW,323,0.0,0.0,90,0.00,,,0.35,0,Wunderground v.1.15,2013-06-06 04:50:00,
2013-06-05 23:55:00,67.1,64.1,29.97,NW,323,1.0,5.0,90,0.00,,,0.35,0,Wunderground v.1.15,2013-06-06 04:55:00,